This demonstration page uses our WeatherBlox Daily Observations layout. Learn more.

Left ArrowRight Arrow

Hourly Observations for April 13, 2020

Temp ( °F °C ) Dew Point ( °F °C ) Humidity (%) Winds ( mph kmh ) Pressure ( in mb ) Visibility ( mi km ) Precip ( " mm )
12:53 am 00:53 Clear 54 12.2 39 3.9 57 57 Calm 29.99 1016 10 16 0.00 0.00
1:53 am 01:53 Clear 50 10 39 3.9 66 66 N 5 7 30.01 1016 10 16 0.00 0.00
2:53 am 02:53 Clear 56 13.3 29 -1.7 36 36 N 7 11 30.03 1017 10 16 0.00 0.00
3:53 am 03:53 Clear 52 11.1 27 -2.8 38 38 NNW 7 11 30.04 1017 10 16 0.00 0.00
4:53 am 04:53 Clear 55 12.8 24 -4.4 30 30 NNW 8 13 30.05 1018 10 16 0.00 0.00
5:53 am 05:53 Clear 58 14.4 21 -6.1 24 24 NNW 13 20 30.07 1018 10 16 0.00 0.00
6:53 am 06:53 Sunny 56 13.3 24 -4.4 29 29 NNW 10 17 30.09 1019 10 16 0.00 0.00
7:53 am 07:53 Sunny 59 15 27 -2.8 29 29 N 8 13 30.12 1020 10 16 0.00 0.00
8:53 am 08:53 Sunny 61 16.1 28 -2.2 29 29 N 18 30 30.14 1021 10 16 0.00 0.00
9:53 am 09:53 Sunny 64 17.8 30 -1.1 28 28 N 21 33 30.14 1021 10 16 0.00 0.00
10:53 am 10:53 Sunny 66 18.9 29 -1.7 25 25 N 16 26 30.16 1021 10 16 0.00 0.00
11:53 am 11:53 Sunny 68 20 29 -1.7 23 23 N 17 28 30.16 1021 10 16 0.00 0.00
12:53 pm 12:53 Sunny 71 21.7 29 -1.7 21 21 NNE 20 31 30.15 1021 10 16 0.00 0.00
1:53 pm 13:53 Sunny 71 21.7 27 -2.8 19 19 N 20 31 30.13 1020 10 16 0.00 0.00
2:53 pm 14:53 Sunny 73 22.8 25 -3.9 17 17 N 16 26 30.12 1020 10 16 0.00 0.00
3:53 pm 15:53 Sunny 74 23.3 29 -1.7 19 19 NNE 10 17 30.12 1020 10 16 0.00 0.00
4:53 pm 16:53 Sunny 76 24.4 27 -2.8 16 16 NW 9 15 30.11 1020 10 16 0.00 0.00
5:53 pm 17:53 Sunny 75 23.9 25 -3.9 15 15 undefined N/A 30.10 1019 10 16 0.00 0.00
6:53 pm 18:53 Sunny 74 23.3 25 -3.9 16 16 NE 3 6 30.11 1020 10 16 0.00 0.00
7:53 pm 19:53 Clear 67 19.4 30 -1.1 25 25 NNE 3 6 30.13 1020 10 16 0.00 0.00
8:53 pm 20:53 Clear 62 16.7 34 1.1 35 35 NNE 3 6 30.16 1021 10 16 0.00 0.00
9:53 pm 21:53 Clear 60 15.6 31 -0.6 33 33 NNE 6 9 30.19 1022 10 16 0.00 0.00
10:53 pm 22:53 Clear 59 15 28 -2.2 31 31 NNE 7 11 30.20 1023 10 16 0.00 0.00
11:53 pm 23:53 Clear 53 11.7 35 1.7 51 51 WNW 7 11 30.21 1023 10 16 0.00 0.00

Powered by AerisWeather